Track STARLINK-2632 now! 10-day predictions STARLINK-2632 is classified as:
1 48448U 21040W 22187.15082936 -.00000750 00000-0 -31442-4 0 9991 2 48448 53.0558 88.5216 0002119 76.4208 283.7017 15.06407387 65545